• MPC Preparation (Info)

  • MPEC 2014-J96 : 2014 JW54

    The following Minor Planet Electronic Circular may be linked-to from your own Web pages, but must not otherwise be redistributed electronically.

    A form allowing access to any MPEC is at the bottom of this page.


    Read MPEC 2014-J95 Read MPEC 2014-J97


    M.P.E.C. 2014-J96                                Issued 2014 May 10, 14:53 UT
    
         The Minor Planet Electronic Circulars contain information on unusual
             minor planets and routine data on comets.  They are published
       on behalf of Commission 20 of the International Astronomical Union by the
              Minor Planet Center, Smithsonian Astrophysical Observatory,
                              Cambridge, MA 02138, U.S.A.
    
                 Prepared using the Tamkin Foundation Computer Network
    
                                  MPC@CFA.HARVARD.EDU
                URL https://www.minorplanetcenter.net/    ISSN 1523-6714
    
                                       2014 JW54
    
    Observations:
         K14J54W* C2014 05 07.41414 17 36 33.80 +11 21 19.3          20.5 VqEJ096G96
         K14J54W  C2014 05 07.42075 17 36 32.58 +11 21 19.7          20.1 VqEJ096G96
         K14J54W  C2014 05 07.42737 17 36 31.40 +11 21 19.7          20.5 VqEJ096G96
         K14J54W KC2014 05 08.30896317 33 52.97 +11 21 23.0          21.3 VcEJ096H21
         K14J54W  C2014 05 08.31287 17 33 52.55 +11 21 24.6          20.7 VqEJ096G96
         K14J54W KC2014 05 08.32196917 33 50.66 +11 21 23.8          21.7 VcEJ096H21
         K14J54W  C2014 05 08.33076 17 33 49.26 +11 21 24.2          20.1 VqEJ096G96
         K14J54W KC2014 05 08.33409117 33 48.44 +11 21 24.2          21.4 VcEJ096H21
         K14J54W  C2014 05 08.33971 17 33 47.63 +11 21 24.5          20.7 VqEJ096G96
         K14J54W  C2014 05 08.57429 17 33 05.014+11 21 23.59         21.1 wLEJ096F51
         K14J54W  C2014 05 08.58599 17 33 02.858+11 21 23.32         20.8 wLEJ096F51
         K14J54W  C2014 05 08.59758 17 33 00.726+11 21 23.20         21.0 wLEJ096F51
         K14J54W  C2014 05 08.60914 17 32 58.621+11 21 22.75         20.9 wLEJ096F51
         K14J54W  C2014 05 09.40928 17 30 34.86 +11 20 57.6                qEJ096I52
         K14J54W  C2014 05 09.41429 17 30 33.90 +11 20 57.9                qEJ096I52
         K14J54W  C2014 05 09.41932 17 30 33.03 +11 20 56.9                qEJ096I52
         K14J54W  C2014 05 10.44331 17 27 28.62 +11 20 00.2          20.4 VqEJ096G96
         K14J54W  C2014 05 10.44861 17 27 27.66 +11 19 59.7          20.4 VqEJ096G96
         K14J54W  C2014 05 10.45917 17 27 25.73 +11 19 59.0          19.9 VqEJ096G96
    
    Observer details:
    F51 Pan-STARRS 1, Haleakala.  Observers N. Primak, A. Schultz, T. Goggia,
        M. Willman.  Measurer PS1 Science Consortium.  1.8-m Ritchey-Chretien
        + CCD.
    G96 Mt. Lemmon Survey.  Observers R. A. Kowalski, J. A. Johnson.  Measurers
        E. J. Christensen, A. R. Gibbs, A. D. Grauer, R. E. Hill, J. A. Johnson,
        R. A. Kowalski, S. M. Larson, R. J. Sanders, F. C. Shelly.  1.5-m
        reflector + CCD.
    H21 Astronomical Research Observatory, Westfield.  Observer R. Holmes.
        Measurers S. Foglia, L. Buzzi, T. Linder, T. Lister, T. Vorobjov.  0.76-m
        f/4.0 astrograph + CCD.
    I52 Steward Observatory, Mt. Lemmon Station.  Observer A. R. Gibbs.  Measurers
        E. J. Christensen, A. R. Gibbs, A. D. Grauer, R. E. Hill, J. A. Johnson,
        R. A. Kowalski, S. M. Larson, R. J. Sanders, F. C. Shelly.  1.0-m
        reflector + CCD.
    
    Orbital elements:
    2014 JW54                                                Earth MOID = 0.2461 AU
    Epoch 2014 May 23.0 TT = JDT 2456800.5                  MPC
    M  27.43731              (2000.0)            P               Q
    n   0.25959368     Peri.  343.93621     -0.16621125     -0.92987008
    a   2.4337351      Node   114.64680     +0.93980880     -0.25014748
    e   0.8818192      Incl.   21.16764     +0.29855191     +0.26975521
    P   3.80           H   18.6           G   0.15           U   9
    Residuals in seconds of arc
    140507 G96  0.1-  0.2-    140508 H21  0.2+  0.7+    140509 I52  0.4-  0.1-
    140507 G96  0.2-  0.0     140508 G96  0.3+  0.2+    140509 I52  0.3+  0.8-
    140507 G96  0.3+  0.1-    140508 F51  0.0   0.1+    140510 G96  0.1-  0.2+
    140508 H21  0.8-  0.6-    140508 F51  0.1-  0.0     140510 G96  0.0   0.1+
    140508 G96  0.4+  0.2+    140508 F51  0.1-  0.1+    140510 G96  0.1+  0.2+
    140508 H21  0.2+  0.3+    140508 F51  0.1+  0.1-
    140508 G96  0.2+  0.2-    140509 I52  0.2+  0.6-
    
    Ephemeris:
    2014 JW54                a,e,i = 2.43, 0.88, 21                  q = 0.2876
    Date    TT    R. A. (2000) Decl.     Delta      r     Elong.  Phase     V
    2014 04 10    18 47 54.6 +08 36 18   0.8393  1.3624    95.1    47.1    20.7
    ...
    2014 04 25    18 12 19.2 +10 40 47   0.8614  1.5780   115.1    35.2    20.7
    ...
    2014 05 03    17 49 40.8 +11 15 09   0.8842  1.6857   125.8    29.0    20.7
    ...
    2014 05 09    17 31 48.7 +11 21 16   0.9103  1.7634   133.4    24.6    20.8
    2014 05 10    17 28 48.7 +11 20 32   0.9156  1.7761   134.5    23.9    20.8
    2014 05 11    17 25 48.8 +11 19 19   0.9211  1.7887   135.7    23.2    20.8
    ...
    2014 05 17    17 08 03.2 +11 01 41   0.9600  1.8633   141.9    19.6    20.8
    ...
    2014 05 25    16 45 46.7 +10 13 01   1.0285  1.9594   147.4    16.2    21.0
    ...
    2014 06 09    16 11 51.6 +07 45 59   1.2088  2.1300   146.5    15.3    21.5
    
    A. U. Tomatic                (C) Copyright 2014 MPC           M.P.E.C. 2014-J96
    

    Read MPEC 2014-J95 Read MPEC 2014-J97


    MPEC number:

    Enter an MPEC number in one of the following forms:

    • 1997-B01 (the full form)
    • J97B01 (the packed version of the full form)
    • B01 (the abbreviated form)